QPF
0.03 0.01 0.01 0.01 0.02 0.03 0.02 0.01 0.01 0.00 0.00 0.00 0.01 0.02 0.01 0.01 0.01 0.01 0.01 0.01 0.02 0.03 0.02 0.02 0.02 0.02 0.02 0.02 0.02 0.02 0.02 0.02 0.03 0.02 0.02 0.02 0.01 0.01 0.01 0.01 0.02 0.02 0.02
0.04 0.02 0.01 0.01 0.01 0.02 0.02 0.02 0.01 0.01 0.00 0.00 0.01 0.02 0.02 0.01 0.02 0.02 0.02 0.02 0.02 0.02 0.02 0.03 0.02 0.01 0.02 0.02 0.02 0.01 0.01 0.02 0.04 0.07 0.05 0.05 0.02 0.02 0.02 0.01 0.01 0.01 0.02
0.03 0.03 0.02 0.02 0.02 0.02 0.03 0.03 0.02 0.02 0.01 0.01 0.02 0.03 0.03 0.02 0.02 0.02 0.03 0.03 0.03 0.03 0.03 0.03 0.03 0.02 0.01 0.01 0.02 0.02 0.01 0.01 0.02 0.04 0.08 0.08 0.05 0.04 0.02 0.01 0.00 0.01 0.01
0.04 0.04 0.03 0.03 0.03 0.04 0.04 0.04 0.03 0.02 0.01 0.01 0.02 0.03 0.03 0.02 0.02 0.02 0.02 0.03 0.03 0.03 0.03 0.04 0.03 0.02 0.02 0.02 0.02 0.02 0.01 0.01 0.01 0.03 0.05 0.05 0.04 0.03 0.01 0.00 0.00 0.00 0.01
0.04 0.04 0.04 0.04 0.04 0.05 0.06 0.05 0.04 0.03 0.02 0.01 0.01 0.02 0.03 0.04 0.03 0.02 0.01 0.02 0.02 0.03 0.04 0.04 0.03 0.03 0.01 0.01 0.03 0.03 0.02 0.02 0.02 0.02 0.02 0.02 0.02 0.02 0.02 0.01 0.00 0.00 0.00
0.04 0.06 0.06 0.06 0.05 0.05 0.06 0.06 0.05 0.04 0.03 0.02 0.02 0.02 0.03 0.04 0.04 0.02 0.01 0.01 0.02 0.03 0.05 0.06 0.04 0.03 0.01 0.01 0.02 0.03 0.04 0.05 0.03 0.02 0.01 0.01 0.02 0.02 0.02 0.01 0.01 0.00 0.00
0.05 0.06 0.09 0.09 0.08 0.06 0.06 0.06 0.06 0.05 0.04 0.04 0.03 0.03 0.02 0.02 0.04 0.04 0.02 0.01 0.01 0.02 0.03 0.06 0.07 0.05 0.02 0.01 0.01 0.02 0.03 0.03 0.02 0.02 0.01 0.01 0.01 0.02 0.03 0.02 0.01 0.01 0.00
0.11 0.08 0.09 0.11 0.12 0.10 0.08 0.08 0.07 0.05 0.05 0.05 0.05 0.04 0.03 0.03 0.03 0.04 0.04 0.02 0.01 0.02 0.03 0.04 0.04 0.04 0.03 0.01 0.01 0.01 0.02 0.03 0.03 0.02 0.02 0.01 0.01 0.02 0.04 0.03 0.02 0.01 0.01
0.11 0.12 0.11 0.11 0.11 0.11 0.11 0.11 0.10 0.08 0.07 0.05 0.06 0.07 0.06 0.05 0.04 0.05 0.07 0.04 0.02 0.02 0.03 0.06 0.07 0.04 0.02 0.02 0.01 0.01 0.01 0.02 0.03 0.03 0.02 0.02 0.02 0.03 0.05 0.06 0.04 0.02 0.01
0.06 0.09 0.10 0.11 0.11 0.10 0.10 0.10 0.11 0.10 0.08 0.07 0.06 0.06 0.06 0.07 0.07 0.07 0.08 0.07 0.04 0.02 0.03 0.06 0.09 0.07 0.04 0.02 0.01 0.01 0.01 0.01 0.02 0.02 0.02 0.02 0.03 0.04 0.06 0.10 0.06 0.04 0.03
0.05 0.07 0.09 0.09 0.09 0.08 0.08 0.09 0.09 0.09 0.08 0.06 0.05 0.04 0.04 0.04 0.04 0.05 0.07 0.08 0.06 0.03 0.02 0.03 0.05 0.05 0.05 0.04 0.02 0.01 0.01 0.01 0.01 0.02 0.03 0.03 0.02 0.03 0.05 0.12 0.10 0.06 0.03
0.07 0.06 0.07 0.09 0.09 0.07 0.06 0.07 0.08 0.07 0.06 0.05 0.04 0.03 0.03 0.02 0.02 0.02 0.04 0.06 0.06 0.04 0.03 0.02 0.02 0.02 0.02 0.02 0.02 0.01 0.01 0.01 0.01 0.02 0.03 0.03 0.03 0.04 0.05 0.09 0.11 0.07 0.02
0.05 0.05 0.05 0.09 0.12 0.11 0.09 0.07 0.07 0.07 0.06 0.05 0.04 0.03 0.02 0.01 0.01 0.01 0.01 0.03 0.04 0.03 0.02 0.01 0.01 0.01 0.01 0.02 0.02 0.02 0.02 0.02 0.02 0.02 0.03 0.03 0.03 0.05 0.07 0.06 0.08 0.05 0.03
0.06 0.05 0.05 0.06 0.09 0.11 0.11 0.09 0.08 0.08 0.08 0.06 0.05 0.04 0.03 0.01 0.01 0.01 0.01 0.01 0.02 0.02 0.02 0.01 0.01 0.01 0.01 0.02 0.02 0.02 0.02 0.04 0.03 0.03 0.03 0.03 0.02 0.04 0.09 0.07 0.03 0.02 0.01
0.05 0.05 0.04 0.05 0.07 0.07 0.08 0.08 0.08 0.08 0.08 0.08 0.07 0.06 0.05 0.03 0.02 0.01 0.01 0.01 0.01 0.01 0.01 0.01 0.01 0.01 0.01 0.01 0.02 0.02 0.02 0.03 0.03 0.04 0.03 0.03 0.02 0.03 0.08 0.09 0.03 0.01 0.01
0.04 0.04 0.04 0.05 0.06 0.05 0.04 0.05 0.05 0.05 0.06 0.07 0.07 0.06 0.05 0.04 0.03 0.02 0.01 0.01 0.01 0.01 0.01 0.01 0.01 0.01 0.01 0.01 0.01 0.02 0.02 0.02 0.03 0.03 0.02 0.01 0.01 0.02 0.04 0.07 0.04 0.01 0.00
0.05 0.05 0.05 0.05 0.05 0.05 0.04 0.03 0.03 0.03 0.03 0.04 0.05 0.06 0.06 0.05 0.04 0.03 0.02 0.02 0.02 0.01 0.01 0.01 0.00 0.00 0.00 0.01 0.01 0.01 0.02 0.02 0.02 0.02 0.02 0.01 0.01 0.01 0.02 0.03 0.03 0.01 0.00
0.05 0.05 0.03 0.03 0.03 0.03 0.03 0.02 0.02 0.02 0.02 0.03 0.04 0.05 0.05 0.05 0.04 0.04 0.04 0.03 0.03 0.02 0.02 0.01 0.01 0.00 0.00 0.00 0.01 0.02 0.02 0.03 0.02 0.02 0.02 0.02 0.02 0.02 0.02 0.02 0.01 0.01 0.01
0.04 0.03 0.02 0.02 0.02 0.02 0.02 0.02 0.02 0.02 0.02 0.02 0.02 0.03 0.03 0.03 0.03 0.03 0.03 0.03 0.03 0.03 0.03 0.03 0.02 0.02 0.02 0.01 0.01 0.01 0.02 0.03 0.02 0.02 0.03 0.03 0.03 0.02 0.02 0.01 0.01 0.01 0.01
0.03 0.02 0.02 0.02 0.02 0.02 0.02 0.02 0.02 0.02 0.02 0.02 0.01 0.02 0.02 0.03 0.03 0.03 0.03 0.03 0.02 0.03 0.04 0.04 0.03 0.03 0.03 0.02 0.02 0.02 0.02 0.02 0.03 0.03 0.03 0.02 0.02 0.02 0.02 0.01 0.01 0.01 0.01
0.04 0.03 0.02 0.02 0.02 0.02 0.01 0.01 0.01 0.01 0.02 0.02 0.02 0.02 0.02 0.03 0.03 0.03 0.03 0.03 0.03 0.03 0.03 0.03 0.03 0.03 0.02 0.02 0.02 0.02 0.02 0.02 0.02 0.03 0.03 0.03 0.02 0.02 0.02 0.02 0.01 0.01 0.01
0.05 0.04 0.03 0.02 0.02 0.02 0.02 0.01 0.01 0.01 0.01 0.02 0.02 0.02 0.02 0.02 0.03 0.03 0.03 0.03 0.03 0.03 0.03 0.03 0.02 0.02 0.02 0.01 0.01 0.02 0.02 0.02 0.03 0.02 0.03 0.04 0.03 0.03 0.02 0.01 0.01 0.01 0.01
0.04 0.04 0.04 0.03 0.03 0.03 0.03 0.03 0.02 0.02 0.01 0.01 0.02 0.02 0.01 0.01 0.02 0.02 0.02 0.03 0.02 0.02 0.02 0.02 0.02 0.02 0.02 0.02 0.02 0.02 0.02 0.03 0.03 0.02 0.02 0.03 0.04 0.03 0.02 0.01 0.01 0.01 0.01
0.03 0.03 0.02 0.02 0.02 0.03 0.03 0.03 0.03 0.03 0.02 0.02 0.01 0.01 0.02 0.01 0.01 0.01 0.02 0.02 0.02 0.02 0.02 0.01 0.01 0.02 0.02 0.02 0.02 0.03 0.03 0.03 0.03 0.03 0.02 0.02 0.02 0.02 0.02 0.01 0.01 0.01 0.01
0.01 0.02 0.02 0.02 0.02 0.02 0.02 0.02 0.03 0.03 0.03 0.02 0.02 0.02 0.02 0.02 0.02 0.02 0.02 0.02 0.02 0.01 0.02 0.02 0.02 0.03 0.03 0.03 0.03 0.03 0.03 0.03 0.03 0.03 0.02 0.03 0.02 0.01 0.01 0.01 0.01 0.01 0.01
0.01 0.00 0.01 0.01 0.02 0.02 0.02 0.02 0.02 0.02 0.02 0.02 0.02 0.01 0.02 0.02 0.02 0.02 0.02 0.02 0.02 0.02 0.02 0.02 0.02 0.02 0.02 0.02 0.02 0.03 0.03 0.04 0.04 0.03 0.02 0.02 0.02 0.02 0.02 0.02 0.01 0.01 0.01
MSLP
1017.24 1017.65 1017.95 1018.15 1018.29 1018.43 1018.58 1018.77 1019.01 1019.27 1019.54 1019.80 1020.05 1020.28 1020.50 1020.71 1020.92 1021.14 1021.35 1021.55 1021.71 1021.82 1021.87 1021.87 1021.83 1021.76 1021.69 1021.64 1021.60 1021.58 1021.56 1021.53 1021.45 1021.32 1021.13 1020.89 1020.61 1020.30 1019.97 1019.65 1019.33 1019.03 1018.74
1016.82 1017.29 1017.65 1017.93 1018.15 1018.36 1018.59 1018.86 1019.16 1019.49 1019.83 1020.16 1020.45 1020.72 1020.95 1021.16 1021.36 1021.55 1021.73 1021.90 1022.04 1022.15 1022.21 1022.23 1022.22 1022.17 1022.12 1022.08 1022.04 1022.01 1021.97 1021.91 1021.82 1021.68 1021.50 1021.27 1021.02 1020.74 1020.45 1020.17 1019.89 1019.62 1019.36
1016.27 1016.82 1017.28 1017.66 1017.99 1018.31 1018.64 1018.99 1019.37 1019.78 1020.18 1020.56 1020.89 1021.18 1021.43 1021.63 1021.81 1021.97 1022.12 1022.26 1022.38 1022.47 1022.54 1022.57 1022.58 1022.56 1022.53 1022.49 1022.45 1022.41 1022.35 1022.27 1022.16 1022.01 1021.82 1021.60 1021.36 1021.11 1020.86 1020.61 1020.38 1020.15 1019.92
1015.66 1016.31 1016.88 1017.38 1017.84 1018.27 1018.70 1019.15 1019.61 1020.07 1020.52 1020.94 1021.32 1021.63 1021.88 1022.08 1022.24 1022.38 1022.49 1022.60 1022.69 1022.78 1022.84 1022.89 1022.92 1022.92 1022.91 1022.89 1022.85 1022.79 1022.71 1022.61 1022.47 1022.30 1022.10 1021.88 1021.65 1021.41 1021.17 1020.95 1020.74 1020.54 1020.35
1015.07 1015.81 1016.50 1017.13 1017.71 1018.26 1018.78 1019.30 1019.82 1020.32 1020.81 1021.26 1021.66 1021.99 1022.26 1022.46 1022.62 1022.74 1022.84 1022.92 1023.00 1023.07 1023.14 1023.20 1023.24 1023.27 1023.28 1023.26 1023.22 1023.16 1023.06 1022.94 1022.77 1022.58 1022.36 1022.12 1021.87 1021.62 1021.39 1021.17 1020.97 1020.78 1020.60
1014.58 1015.41 1016.21 1016.95 1017.63 1018.26 1018.85 1019.42 1019.96 1020.49 1020.99 1021.46 1021.87 1022.23 1022.52 1022.74 1022.91 1023.04 1023.13 1023.21 1023.28 1023.36 1023.43 1023.50 1023.56 1023.61 1023.63 1023.63 1023.59 1023.52 1023.41 1023.26 1023.06 1022.84 1022.59 1022.32 1022.04 1021.77 1021.52 1021.28 1021.06 1020.86 1020.67
1014.25 1015.15 1016.02 1016.84 1017.59 1018.27 1018.90 1019.48 1020.02 1020.55 1021.05 1021.52 1021.94 1022.33 1022.65 1022.91 1023.11 1023.26 1023.38 1023.47 1023.56 1023.64 1023.73 1023.81 1023.89 1023.96 1024.00 1024.00 1023.97 1023.88 1023.75 1023.58 1023.36 1023.10 1022.81 1022.51 1022.20 1021.89 1021.60 1021.32 1021.07 1020.83 1020.62
1014.10 1015.05 1015.97 1016.82 1017.60 1018.30 1018.92 1019.49 1020.01 1020.51 1020.99 1021.46 1021.90 1022.31 1022.67 1022.98 1023.23 1023.42 1023.58 1023.70 1023.82 1023.93 1024.03 1024.14 1024.24 1024.32 1024.37 1024.38 1024.35 1024.25 1024.10 1023.90 1023.65 1023.36 1023.04 1022.71 1022.36 1022.02 1021.68 1021.35 1021.05 1020.77 1020.51
1014.15 1015.11 1016.04 1016.90 1017.68 1018.36 1018.95 1019.47 1019.95 1020.42 1020.88 1021.33 1021.79 1022.23 1022.63 1022.99 1023.29 1023.54 1023.74 1023.91 1024.06 1024.20 1024.34 1024.48 1024.60 1024.70 1024.76 1024.77 1024.73 1024.62 1024.44 1024.22 1023.94 1023.63 1023.28 1022.92 1022.55 1022.17 1021.79 1021.42 1021.07 1020.74 1020.43
1014.34 1015.30 1016.21 1017.06 1017.80 1018.44 1018.99 1019.47 1019.90 1020.33 1020.76 1021.21 1021.68 1022.14 1022.58 1022.98 1023.34 1023.64 1023.89 1024.10 1024.29 1024.47 1024.65 1024.81 1024.96 1025.08 1025.15 1025.16 1025.10 1024.97 1024.77 1024.52 1024.22 1023.89 1023.53 1023.15 1022.77 1022.37 1021.97 1021.57 1021.17 1020.78 1020.42
1014.63 1015.57 1016.46 1017.27 1017.98 1018.57 1019.07 1019.51 1019.90 1020.30 1020.72 1021.16 1021.64 1022.11 1022.58 1023.01 1023.40 1023.74 1024.02 1024.27 1024.50 1024.72 1024.93 1025.12 1025.30 1025.43 1025.51 1025.51 1025.44 1025.28 1025.06 1024.78 1024.46 1024.11 1023.75 1023.38 1023.00 1022.60 1022.20 1021.78 1021.35 1020.93 1020.51
1014.96 1015.88 1016.74 1017.51 1018.18 1018.74 1019.21 1019.61 1019.99 1020.37 1020.78 1021.23 1021.70 1022.19 1022.67 1023.12 1023.52 1023.87 1024.17 1024.45 1024.70 1024.95 1025.19 1025.41 1025.61 1025.76 1025.84 1025.83 1025.73 1025.55 1025.30 1024.99 1024.65 1024.30 1023.94 1023.58 1023.22 1022.85 1022.46 1022.04 1021.60 1021.15 1020.68
1015.26 1016.16 1017.00 1017.75 1018.39 1018.93 1019.39 1019.78 1020.16 1020.55 1020.97 1021.42 1021.90 1022.40 1022.87 1023.31 1023.71 1024.05 1024.36 1024.64 1024.91 1025.17 1025.43 1025.68 1025.90 1026.05 1026.12 1026.10 1025.98 1025.76 1025.48 1025.14 1024.78 1024.42 1024.07 1023.74 1023.41 1023.07 1022.70 1022.31 1021.87 1021.39 1020.89
1015.50 1016.39 1017.21 1017.95 1018.58 1019.13 1019.59 1020.01 1020.41 1020.82 1021.27 1021.74 1022.23 1022.72 1023.18 1023.61 1023.98 1024.31 1024.60 1024.87 1025.14 1025.42 1025.69 1025.95 1026.17 1026.32 1026.39 1026.34 1026.18 1025.93 1025.60 1025.23 1024.85 1024.48 1024.14 1023.83 1023.53 1023.23 1022.90 1022.52 1022.09 1021.60 1021.06
1015.67 1016.55 1017.36 1018.09 1018.74 1019.30 1019.80 1020.26 1020.70 1021.16 1021.64 1022.14 1022.65 1023.13 1023.59 1023.99 1024.34 1024.64 1024.91 1025.17 1025.43 1025.70 1025.98 1026.24 1026.46 1026.60 1026.64 1026.56 1026.36 1026.06 1025.69 1025.28 1024.87 1024.49 1024.15 1023.85 1023.58 1023.30 1023.00 1022.64 1022.21 1021.71 1021.15
1015.77 1016.64 1017.45 1018.18 1018.85 1019.44 1019.99 1020.50 1021.01 1021.52 1022.05 1022.59 1023.11 1023.61 1024.06 1024.44 1024.77 1025.05 1025.30 1025.53 1025.78 1026.05 1026.31 1026.56 1026.76 1026.88 1026.89 1026.77 1026.53 1026.18 1025.76 1025.31 1024.87 1024.47 1024.12 1023.82 1023.55 1023.28 1022.99 1022.64 1022.21 1021.70 1021.11
1015.83 1016.68 1017.49 1018.23 1018.92 1019.55 1020.15 1020.72 1021.29 1021.87 1022.45 1023.03 1023.58 1024.09 1024.54 1024.93 1025.24 1025.51 1025.74 1025.97 1026.20 1026.44 1026.69 1026.92 1027.09 1027.18 1027.15 1026.98 1026.69 1026.30 1025.84 1025.35 1024.87 1024.44 1024.06 1023.74 1023.45 1023.18 1022.87 1022.50 1022.06 1021.53 1020.92
1015.90 1016.73 1017.52 1018.28 1018.98 1019.65 1020.29 1020.92 1021.55 1022.18 1022.81 1023.43 1024.02 1024.55 1025.01 1025.40 1025.72 1025.98 1026.21 1026.42 1026.64 1026.87 1027.09 1027.29 1027.42 1027.47 1027.39 1027.18 1026.85 1026.42 1025.92 1025.39 1024.88 1024.41 1024.00 1023.64 1023.32 1023.00 1022.65 1022.25 1021.78 1021.22 1020.59
1016.01 1016.82 1017.61 1018.36 1019.08 1019.78 1020.45 1021.12 1021.79 1022.47 1023.14 1023.79 1024.40 1024.95 1025.43 1025.83 1026.16 1026.42 1026.65 1026.86 1027.06 1027.27 1027.46 1027.62 1027.71 1027.71 1027.59 1027.35 1026.99 1026.53 1026.00 1025.45 1024.90 1024.40 1023.94 1023.53 1023.15 1022.77 1022.36 1021.90 1021.38 1020.79 1020.14
1016.22 1017.01 1017.78 1018.53 1019.26 1019.97 1020.67 1021.36 1022.05 1022.75 1023.43 1024.10 1024.72 1025.28 1025.77 1026.18 1026.52 1026.79 1027.01 1027.21 1027.40 1027.58 1027.73 1027.85 1027.90 1027.86 1027.71 1027.44 1027.06 1026.59 1026.05 1025.49 1024.93 1024.40 1023.89 1023.42 1022.97 1022.51 1022.02 1021.48 1020.90 1020.26 1019.59
1016.54 1017.32 1018.09 1018.84 1019.57 1020.28 1020.98 1021.67 1022.36 1023.05 1023.72 1024.38 1024.99 1025.54 1026.03 1026.43 1026.77 1027.04 1027.26 1027.44 1027.61 1027.75 1027.86 1027.94 1027.95 1027.87 1027.69 1027.41 1027.04 1026.57 1026.05 1025.50 1024.93 1024.38 1023.84 1023.31 1022.77 1022.22 1021.64 1021.02 1020.35 1019.66 1018.96
1017.00 1017.77 1018.54 1019.29 1020.01 1020.72 1021.41 1022.08 1022.74 1023.40 1024.04 1024.65 1025.23 1025.75 1026.21 1026.59 1026.91 1027.16 1027.36 1027.52 1027.65 1027.75 1027.82 1027.85 1027.82 1027.72 1027.53 1027.26 1026.90 1026.46 1025.97 1025.44 1024.89 1024.33 1023.76 1023.17 1022.56 1021.91 1021.23 1020.52 1019.78 1019.02 1018.28
1017.58 1018.36 1019.13 1019.88 1020.60 1021.28 1021.95 1022.58 1023.20 1023.80 1024.38 1024.94 1025.45 1025.92 1026.33 1026.67 1026.95 1027.16 1027.32 1027.44 1027.53 1027.59 1027.61 1027.60 1027.54 1027.42 1027.23 1026.97 1026.64 1026.25 1025.80 1025.32 1024.79 1024.22 1023.63 1022.99 1022.31 1021.58 1020.81 1020.01 1019.18 1018.36 1017.58
1018.27 1019.06 1019.83 1020.57 1021.28 1021.95 1022.57 1023.16 1023.72 1024.25 1024.76 1025.24 1025.67 1026.07 1026.41 1026.69 1026.91 1027.08 1027.19 1027.26 1027.29 1027.30 1027.27 1027.22 1027.13 1027.00 1026.81 1026.58 1026.29 1025.94 1025.55 1025.10 1024.60 1024.05 1023.44 1022.77 1022.03 1021.23 1020.38 1019.49 1018.59 1017.71 1016.87
1019.02 1019.82 1020.59 1021.32 1022.01 1022.64 1023.22 1023.76 1024.25 1024.71 1025.14 1025.53 1025.89 1026.21 1026.47 1026.68 1026.84 1026.94 1026.99 1027.01 1026.98 1026.93 1026.86 1026.77 1026.66 1026.51 1026.33 1026.12 1025.87 1025.57 1025.22 1024.82 1024.35 1023.81 1023.19 1022.50 1021.72 1020.86 1019.94 1018.99 1018.03 1017.09 1016.20
1019.79 1020.58 1021.34 1022.05 1022.70 1023.30 1023.83 1024.31 1024.74 1025.13 1025.49 1025.81 1026.09 1026.33 1026.52 1026.67 1026.76 1026.80 1026.79 1026.75 1026.67 1026.57 1026.46 1026.33 1026.19 1026.03 1025.86 1025.66 1025.43 1025.17 1024.85 1024.48 1024.04 1023.51 1022.89 1022.17 1021.36 1020.47 1019.51 1018.51 1017.50 1016.52 1015.59
Thickness
5676 5677 5678 5678 5678 5679 5680 5680 5679 5680 5680 5680 5680 5680 5680 5679 5679 5678 5678 5677 5677 5676 5676 5675 5674 5673 5671 5671 5670 5669 5668 5667 5666 5666 5665 5664 5663 5662 5661 5660 5659 5658 5656
5671 5672 5672 5673 5674 5675 5675 5675 5675 5675 5675 5675 5675 5675 5675 5675 5675 5674 5674 5673 5672 5672 5671 5670 5669 5668 5667 5666 5665 5665 5664 5663 5662 5661 5660 5659 5659 5658 5656 5655 5654 5653 5652
5666 5666 5667 5668 5669 5670 5670 5670 5670 5670 5670 5670 5670 5670 5670 5670 5670 5670 5669 5668 5667 5667 5666 5666 5664 5663 5662 5662 5661 5660 5659 5658 5657 5657 5656 5655 5654 5653 5652 5651 5649 5648 5647
5660 5661 5662 5663 5664 5664 5665 5665 5665 5664 5664 5664 5664 5665 5665 5665 5665 5665 5664 5663 5663 5662 5661 5660 5659 5658 5657 5657 5656 5655 5654 5653 5652 5651 5651 5650 5649 5648 5647 5646 5644 5643 5642
5653 5655 5656 5657 5658 5658 5659 5660 5659 5659 5658 5658 5658 5658 5659 5659 5658 5659 5658 5658 5657 5656 5656 5655 5654 5653 5651 5651 5650 5649 5649 5648 5647 5646 5645 5644 5643 5642 5642 5641 5640 5639 5637
5647 5649 5650 5651 5652 5652 5652 5653 5653 5653 5652 5652 5652 5651 5651 5651 5652 5652 5652 5651 5651 5650 5650 5649 5648 5647 5646 5645 5644 5643 5642 5641 5641 5640 5639 5638 5638 5637 5636 5635 5634 5633 5632
5639 5641 5643 5644 5645 5645 5646 5647 5647 5646 5645 5645 5643 5641 5641 5643 5643 5643 5644 5644 5643 5643 5643 5642 5641 5640 5639 5639 5638 5637 5636 5635 5634 5634 5633 5632 5631 5631 5630 5630 5629 5628 5627
5631 5633 5635 5636 5637 5638 5638 5639 5640 5638 5638 5638 5637 5634 5631 5632 5634 5636 5636 5636 5636 5636 5635 5635 5634 5633 5632 5632 5631 5630 5629 5628 5628 5627 5626 5625 5624 5624 5624 5623 5623 5622 5621
5623 5625 5627 5628 5629 5630 5631 5632 5633 5634 5632 5630 5631 5630 5626 5625 5624 5626 5627 5628 5628 5628 5628 5627 5626 5625 5624 5624 5623 5622 5622 5621 5621 5621 5619 5618 5618 5617 5617 5616 5616 5615 5614
5613 5616 5619 5620 5621 5622 5623 5625 5626 5627 5627 5624 5623 5624 5623 5623 5619 5617 5618 5619 5620 5620 5619 5619 5618 5617 5616 5616 5615 5614 5614 5613 5613 5613 5612 5612 5611 5610 5610 5610 5609 5608 5607
5603 5606 5608 5610 5612 5614 5615 5616 5617 5619 5619 5619 5617 5616 5614 5614 5614 5612 5610 5609 5609 5610 5611 5610 5609 5609 5608 5607 5606 5606 5606 5605 5605 5605 5605 5604 5603 5602 5602 5602 5601 5600 5599
5593 5596 5599 5600 5602 5604 5606 5607 5609 5610 5611 5611 5611 5610 5609 5608 5606 5605 5603 5601 5599 5600 5601 5601 5600 5600 5599 5599 5598 5598 5597 5597 5596 5596 5596 5595 5595 5594 5593 5593 5592 5592 5591
5583 5586 5589 5591 5592 5595 5597 5599 5600 5600 5602 5602 5602 5602 5602 5602 5601 5599 5596 5592 5590 5590 5591 5590 5591 5591 5590 5589 5589 5589 5589 5588 5587 5587 5587 5587 5586 5585 5584 5583 5582 5581 5581
5575 5577 5579 5581 5583 5585 5587 5589 5590 5591 5592 5593 5593 5593 5593 5592 5592 5592 5590 5586 5582 5580 5580 5581 5582 5582 5581 5580 5580 5580 5580 5579 5578 5578 5577 5577 5576 5575 5574 5574 5573 5571 5571
5565 5567 5569 5571 5573 5574 5576 5578 5579 5581 5582 5583 5583 5583 5584 5583 5583 5583 5582 5581 5577 5573 5572 5571 5571 5572 5571 5570 5570 5570 5569 5569 5568 5568 5567 5567 5566 5565 5564 5563 5562 5561 5561
5556 5557 5558 5561 5563 5563 5565 5567 5569 5571 5572 5572 5573 5573 5573 5573 5573 5573 5573 5571 5570 5568 5563 5563 5561 5561 5560 5560 5560 5560 5559 5559 5558 5557 5557 5556 5555 5554 5553 5553 5551 5550 5550
5544 5546 5548 5550 5552 5552 5554 5557 5559 5561 5562 5562 5562 5562 5563 5563 5563 5562 5561 5561 5559 5557 5554 5552 5551 5551 5549 5549 5549 5549 5548 5548 5547 5546 5546 5545 5544 5543 5542 5541 5540 5539 5538
5533 5536 5538 5539 5541 5542 5545 5547 5548 5549 5550 5551 5550 5551 5552 5552 5552 5551 5550 5549 5548 5546 5544 5541 5540 5539 5539 5538 5538 5537 5536 5535 5535 5534 5534 5533 5532 5531 5530 5529 5528 5526 5525
5522 5525 5527 5528 5530 5532 5534 5536 5537 5538 5539 5539 5540 5540 5540 5540 5540 5539 5538 5537 5536 5535 5533 5531 5529 5527 5526 5525 5524 5524 5523 5522 5522 5521 5521 5520 5519 5518 5517 5516 5515 5513 5512
5511 5514 5515 5517 5519 5521 5522 5524 5525 5526 5527 5527 5528 5528 5529 5529 5529 5528 5527 5526 5524 5522 5520 5518 5516 5515 5513 5511 5510 5509 5509 5509 5508 5508 5507 5506 5505 5504 5503 5502 5501 5500 5498
5501 5502 5504 5505 5508 5509 5511 5512 5513 5514 5514 5515 5515 5516 5516 5517 5517 5516 5516 5514 5512 5510 5507 5505 5502 5501 5499 5497 5496 5495 5494 5494 5494 5493 5493 5493 5491 5490 5489 5487 5487 5485 5484
5488 5490 5491 5493 5495 5497 5499 5501 5502 5502 5502 5502 5502 5502 5503 5503 5504 5504 5503 5502 5500 5497 5495 5492 5490 5487 5486 5484 5482 5480 5479 5479 5480 5480 5477 5479 5477 5476 5475 5474 5473 5471 5470
5475 5476 5478 5480 5482 5484 5487 5489 5490 5490 5489 5489 5489 5489 5490 5490 5489 5489 5488 5488 5485 5484 5483 5480 5477 5475 5473 5472 5469 5467 5466 5465 5465 5464 5462 5465 5463 5462 5462 5460 5459 5458 5457
5464 5465 5466 5468 5470 5472 5474 5476 5476 5476 5476 5476 5476 5476 5476 5475 5474 5474 5473 5472 5470 5468 5468 5466 5465 5464 5461 5458 5456 5455 5453 5452 5451 5449 5447 5448 5450 5449 5450 5448 5446 5444 5443
5452 5453 5454 5456 5458 5460 5462 5463 5464 5463 5463 5463 5463 5462 5462 5461 5461 5459 5458 5456 5455 5454 5452 5451 5450 5449 5447 5445 5442 5440 5438 5436 5437 5438 5434 5433 5435 5435 5437 5437 5435 5432 5431
5440 5441 5442 5444 5446 5448 5450 5451 5451 5451 5451 5450 5449 5448 5448 5447 5446 5444 5442 5441 5440 5440 5438 5437 5435 5434 5432 5431 5429 5426 5425 5422 5422 5424 5423 5419 5420 5418 5423 5427 5423 5421 5419